Погода в Белогорке

Россия / Амурская область     50°55′41″N   128°36′02″E
темп.,
°C
ветер,
м/с
пор.,
м/с
влажн.,
%
обл.,
%
осадки,
мм/ч
давл.,
гПа
погр.,
м
18 мая, вт
вт1800:00+11с5960100 0.0 998296
03:00+9ссв597688 0.1 998327
06:00+10сз117389 0.0 999155
09:00+13зюз235917 0.0 999765
12:00+17зсз465199 0.0 9991829
15:00+16сз674699 0.1 10001234
18:00+15ссв3548100 0.0 1000428
21:00+11всв335595 0.0 100131
19 мая, ср
ср1900:00+10св6113383 0.0 1003447
03:00+8ссз6105799 0.0 1005473
06:00+7св366618 0.0 1006227
09:00+12сз225080 0.0 1006895
12:00+15зюз2343100 0.0 10061961
15:00+17ю343573 0.0 10042146
18:00+17ююв5836100 0.0 10021756
21:00+15юв81541100 0.0 998593
20 мая, чт
чт2000:00+14ююв91947100 0.0 995536
03:00+13ююз51167100 0.8 996352
06:00+10сз6117285 0.0 1000688
09:00+12сз68525 0.0 1003937
12:00+16сз453573 0.0 10041441
15:00+17сз3429100 0.0 10051820
18:00+17с233048 0.0 10051352
21:00+13вюв344199 0.0 100539
21 мая, пт
пт2100:00+9ссв51174100 0.0 1009354
03:00+8с498114 0.0 1009286
06:00+9ссв258098 0.0 1011223
09:00+13с455698 0.0 10121075
12:00+16с553396 0.0 10121600
15:00+17ссв452644 0.0 10101595
18:00+15с573260 0.0 1009652
21:00+11ссв48385 0.0 1011154
22 мая, сб
сб2200:00+8ссв494216 0.0 1010182
03:00+7св495047 0.0 1010182
06:00+8всв3851100 0.0 1009214
09:00+12с2238100 0.0 1009357
12:00+16в563582 0.1 1006625
15:00+22юв6935100 0.1 10021143
18:00+24ююв594414 0.0 998908
21:00+21юв81755100 0.0 997338